| time (UTC) | temp F | wind direction | speed knots | gust knots | rain 1hr in | rain 24hr in | rain mn in | humidity % | barometer mb |
| 20260504081559 | 48 | 217 | 0.0 | 0.0 | 0.00 | 0.04 | 0.00 | 1 | 1022.8 |
| 20260504050012 | 52 | 217 | 0.0 | 0.0 | 0.00 | 0.06 | 0.00 | 1 | 1023.7 |
| 20260504044551 | 52 | 217 | 0.0 | 0.0 | 0.00 | 0.06 | 0.00 | 1 | 1023.8 |
| 20260504043052 | 52 | 217 | 0.0 | 0.0 | 0.00 | 0.07 | 0.00 | 1 | 1023.8 |
| 20260504041523 | 52 | 217 | 0.0 | 0.0 | 0.00 | 0.07 | 0.00 | 1 | 1023.8 |
| 20260504040020 | 53 | 217 | 0.0 | 0.0 | 0.00 | 0.07 | 0.00 | 1 | 1023.8 |
| 20260504034600 | 53 | 217 | 0.0 | 0.0 | 0.00 | 0.07 | 0.00 | 1 | 1023.8 |
| 20260504033058 | 54 | 217 | 0.0 | 0.0 | 0.00 | 0.07 | 0.07 | 4 | 1023.8 |
| 20260504031532 | 54 | 217 | 0.0 | 0.0 | 0.00 | 0.07 | 0.07 | 12 | 1023.6 |
| 20260504030028 | 55 | 217 | 0.0 | 0.0 | 0.00 | 0.07 | 0.07 | 23 | 1023.4 |
| 20260504024506 | 56 | 217 | 0.0 | 0.0 | 0.00 | 0.07 | 0.07 | 36 | 1023.5 |
| 20260504023002 | 57 | 217 | 0.0 | 0.0 | 0.00 | 0.08 | 0.07 | 42 | 1023.3 |
| 20260504021539 | 58 | 217 | 0.0 | 0.0 | 0.00 | 0.08 | 0.07 | 46 | 1023.3 |
| 20260504020035 | 59 | 217 | 0.0 | 0.0 | 0.00 | 0.08 | 0.07 | 52 | 1023.0 |
| 20260504014524 | 60 | 217 | 0.0 | 0.0 | 0.00 | 0.08 | 0.07 | 56 | 1023.0 |
| 20260504013012 | 61 | 217 | 0.0 | 0.0 | 0.00 | 0.09 | 0.07 | 59 | 1022.9 |
| 20260504011549 | 62 | 217 | 0.0 | 0.0 | 0.00 | 0.09 | 0.07 | 60 | 1022.7 |
| 20260504010051 | 64 | 217 | 0.0 | 0.0 | 0.00 | 0.09 | 0.07 | 58 | 1022.5 |
| 20260504004522 | 65 | 217 | 0.0 | 0.0 | 0.00 | 0.09 | 0.07 | 56 | 1022.2 |
| 20260504003018 | 67 | 217 | 0.0 | 0.0 | 0.00 | 0.11 | 0.07 | 53 | 1022.1 |
| 20260504001602 | 69 | 217 | 0.0 | 0.0 | 0.00 | 0.11 | 0.07 | 52 | 1021.9 |
| 20260504000055 | 70 | 217 | 0.0 | 0.0 | 0.00 | 0.11 | 0.07 | 50 | 1021.8 |
| 20260503234529 | 71 | 217 | 0.0 | 0.0 | 0.00 | 0.11 | 0.07 | 43 | 1021.8 |
| 20260503233025 | 72 | 217 | 0.0 | 0.0 | 0.00 | 0.12 | 0.07 | 41 | 1021.8 |
| 20260503231502 | 72 | 182 | 0.0 | 0.0 | 0.00 | 0.12 | 0.07 | 40 | 1021.9 |
| 20260503230058 | 72 | 190 | 0.0 | 0.0 | 0.00 | 0.12 | 0.07 | 37 | 1021.9 |
| 20260503224542 | 73 | 175 | 0.0 | 0.0 | 0.00 | 0.12 | 0.07 | 37 | 1021.9 |
| 20260503223033 | 73 | 208 | 0.0 | 0.9 | 0.00 | 0.14 | 0.07 | 35 | 1021.9 |
| 20260503221510 | 75 | 178 | 0.0 | 0.0 | 0.00 | 0.14 | 0.07 | 35 | 1022.0 |
| 20260503220007 | 75 | 206 | 0.0 | 0.0 | 0.00 | 0.14 | 0.07 | 35 | 1022.1 |
| 20260503214545 | 74 | 160 | 0.0 | 0.0 | 0.00 | 0.14 | 0.07 | 37 | 1022.1 |
| 20260503213040 | 75 | 188 | 0.0 | 0.0 | 0.00 | 0.16 | 0.07 | 37 | 1022.2 |
| 20260503211518 | 74 | 207 | 0.0 | 0.0 | 0.00 | 0.16 | 0.07 | 36 | 1022.3 |
| 20260503210036 | 76 | 157 | 0.0 | 0.0 | 0.00 | 0.16 | 0.07 | 36 | 1022.3 |
| 20260503204605 | 76 | 201 | 0.0 | 0.0 | 0.00 | 0.16 | 0.07 | 35 | 1022.5 |
| 20260503203058 | 76 | 215 | 0.0 | 0.0 | 0.00 | 0.18 | 0.07 | 34 | 1022.8 |
| 20260503201534 | 77 | 149 | 0.0 | 0.0 | 0.00 | 0.18 | 0.07 | 34 | 1023.1 |
| 20260503200025 | 76 | 183 | 0.0 | 0.0 | 0.00 | 0.18 | 0.07 | 36 | 1023.3 |
| 20260503194624 | 77 | 200 | 0.0 | 0.0 | 0.00 | 0.18 | 0.07 | 34 | 1023.7 |
| 20260503193054 | 76 | 191 | 0.0 | 0.0 | 0.00 | 0.22 | 0.07 | 36 | 1023.8 |
| 20260503191534 | 76 | 207 | 0.0 | 0.0 | 0.00 | 0.22 | 0.07 | 34 | 1024.0 |
| 20260503190037 | 74 | 138 | 0.0 | 0.0 | 0.00 | 0.22 | 0.07 | 37 | 1024.2 |
| 20260503184520 | 74 | 164 | 0.0 | 0.0 | 0.00 | 0.22 | 0.07 | 37 | 1024.3 |
| 20260503183010 | 74 | 141 | 0.0 | 0.0 | 0.00 | 0.26 | 0.07 | 37 | 1024.4 |
| 20260503181506 | 74 | 192 | 0.0 | 0.0 | 0.00 | 0.26 | 0.07 | 37 | 1024.3 |
| 20260503180109 | 72 | 288 | 0.0 | 0.0 | 0.00 | 0.26 | 0.07 | 36 | 1024.6 |
| 20260503180001 | 73 | 238 | 0.0 | 0.0 | 0.00 | 0.26 | 0.07 | 37 | 1024.6 |
| 20260503174555 | 73 | 200 | 0.0 | 0.0 | 0.00 | 0.26 | 0.07 | 40 | 1024.8 |
| 20260503173139 | 72 | 180 | 0.0 | 0.0 | 0.00 | 0.31 | 0.07 | 41 | 1025.0 |
| 20260503171548 | 72 | 178 | 0.0 | 0.0 | 0.00 | 0.31 | 0.07 | 39 | 1025.2 |